Milford, UT

5:39 PM MST on November 20, 2019 (GMT -0700)
Milford Municipal

Weather History for KMLF - October, 2019

Change the Weather History Date:

Monday, October 21, 2019

  Actual Average Record
Temperature  
Mean Temperature 42 °F -  
Max Temperature 63 °F 61 °F 81 °F (2003)
Min Temperature 21 °F 29 °F 16 °F (1996)
Degree Days  
Heating Degree Days 24    
Moisture  
Dew Point 14 °F    
Average Humidity 34    
Maximum Humidity 58    
Minimum Humidity 16    
Precipitation  
Precipitation 0.00 in - - ()
Sea Level Pressure  
Sea Level Pressure 30.23 in    
Wind  
Wind Speed 8 mph ()    
Max Wind Speed 17 mph    
Max Gust Speed 23 mph    
Visibility 10.0 miles    
Events      
Averages and records for this station are not official NWS values.
T = Trace of Precipitation, MM = Missing Value Source: Averaged Metar Reports

Daily Weather History Graph

Daily Weather History Graph

Search for Another Location

Airport or City:

Astronomy

Oct. 21, 2019 Rise Set
Actual Time 7:46 AM MDT 6:45 PM MDT
Civil Twilight 7:19 AM MDT 7:12 PM MDT
Nautical Twilight 6:49 AM MDT 7:43 PM MDT
Astronomical Twilight 6:18 AM MDT 8:14 PM MDT
Moon 12:03 AM MDT 3:05 PM MDT
Length of Visible Light 11h 52m
Length of Day
10h 59m
Waning Gibbous, 47% of the Moon is Illuminated
Oct 21
Waning Gibbous
Oct 27
New
Nov 4
First Quarter
Nov 12
Full
Nov 19
Last Quarter

Hourly Weather History & Observations

Time (MDT) Temp. Windchill Dew Point Humidity Pressure Visibility Wind Dir Wind Speed Gust Speed Precip Events Conditions
12:52 AM 26.1 °F 20.5 °F 10.9 °F 53% 30.14 in 10.0 mi SSW 4.6 mph - N/A   Clear
1:52 AM 24.1 °F 16.0 °F 10.0 °F 55% 30.15 in 10.0 mi SSW 6.9 mph - N/A   Clear
2:52 AM 24.1 °F 14.4 °F 9.0 °F 53% 30.17 in 10.0 mi SW 9.2 mph - N/A   Clear
3:52 AM 24.1 °F 13.1 °F 9.0 °F 53% 30.15 in 10.0 mi SW 11.5 mph - N/A   Clear
4:52 AM 21.9 °F 12.5 °F 9.0 °F 58% 30.17 in 10.0 mi South 8.1 mph - N/A   Clear
5:52 AM 21.9 °F 15.7 °F 9.0 °F 58% 30.19 in 10.0 mi SSW 4.6 mph - N/A   Clear
6:52 AM 23.0 °F 14.7 °F 8.1 °F 53% 30.22 in 10.0 mi South 6.9 mph - N/A   Clear
7:52 AM 24.1 °F 13.7 °F 9.0 °F 53% 30.25 in 10.0 mi South 10.4 mph - N/A   Clear
8:52 AM 27.0 °F 18.7 °F 9.0 °F 47% 30.27 in 10.0 mi South 8.1 mph - N/A   Partly Cloudy
9:52 AM 37.0 °F 29.8 °F 10.9 °F 34% 30.24 in 10.0 mi South 10.4 mph - N/A   Clear
10:44 AM 46.0 °F 40.2 °F 12.9 °F 26% 30.23 in 10.0 mi South 12.7 mph - N/A   Clear
10:46 AM 46.0 °F 40.6 °F 12.9 °F 26% 30.23 in 10.0 mi South 11.5 mph - N/A   Clear
10:52 AM 46.9 °F - 12.9 °F 25% 30.22 in 10.0 mi South 9.2 mph - N/A   Clear
11:52 AM 53.1 °F - 15.1 °F 22% 30.21 in 10.0 mi South 6.9 mph - N/A   Clear
12:52 PM 57.9 °F - 18.0 °F 21% 30.22 in 10.0 mi Variable 3.5 mph - N/A   Clear
1:52 PM 61.0 °F - 15.1 °F 17% 30.19 in 10.0 mi NNE 13.8 mph - N/A   Clear
2:14 PM 62.1 °F - 15.1 °F 16% 30.22 in 10.0 mi North 17.3 mph - N/A   Clear
2:16 PM 62.1 °F - 15.1 °F 16% 30.22 in 10.0 mi North 11.5 mph - N/A   Clear
2:35 PM 62.1 °F - 15.1 °F 16% 30.21 in 10.0 mi North 16.1 mph - N/A   Clear
2:47 PM 62.1 °F - 16.0 °F 17% 30.21 in 10.0 mi NNE 17.3 mph 23.0 mph N/A   Clear
2:52 PM 62.1 °F - 16.0 °F 17% 30.18 in 10.0 mi NE 13.8 mph 23.0 mph N/A   Clear
3:03 PM 61.0 °F - 15.1 °F 17% 30.21 in 10.0 mi NNE 11.5 mph - N/A   Clear
3:52 PM 62.1 °F - 16.0 °F 17% 30.19 in 10.0 mi North 13.8 mph - N/A   Clear
4:52 PM 61.0 °F - 17.1 °F 18% 30.20 in 10.0 mi NE 9.2 mph - N/A   Clear
5:52 PM 59.0 °F - 19.0 °F 21% 30.22 in 10.0 mi NNE 10.4 mph - N/A   Clear
6:52 PM 52.0 °F - 19.0 °F 27% 30.26 in 10.0 mi North 8.1 mph - N/A   Clear
7:52 PM 46.0 °F 42.5 °F 18.0 °F 33% 30.31 in 10.0 mi NW 6.9 mph - N/A   Clear
8:52 PM 44.1 °F 39.5 °F 19.0 °F 37% 30.32 in 10.0 mi NW 8.1 mph - N/A   Clear
9:52 PM 39.0 °F 33.4 °F 18.0 °F 43% 30.34 in 10.0 mi NW 8.1 mph - N/A   Clear
10:52 PM 42.1 °F 39.2 °F 21.0 °F 43% 30.32 in 10.0 mi North 4.6 mph - N/A   Clear
11:52 PM 35.1 °F - 19.0 °F 52% 30.34 in 10.0 mi Calm Calm - N/A   Clear